Location: Brede
(50.9167°N, 0.6000°E)
Time: 11:09:35
(UTC+00:00)

CZ-2C R/B - Visible Passes

Search period start: 20 June 2021 00:00
Search period end: 30 June 2021 00:00
Orbit: 668 x 783 km, 98.2° (Epoch: 19 June)

Date Brightness Start Highest point End Pass type
(mag) Time Alt. Az. Time Alt. Az. Time Alt. Az.
20 Jun 5.2 02:12:09 10° ENE 02:13:34 11° E 02:14:57 10° E visible
22 Jun 5.1 02:13:56 10° ENE 02:15:33 11° E 02:17:08 10° ESE visible
24 Jun 5.1 02:15:44 10° ENE 02:17:31 12° E 02:19:17 10° ESE visible
26 Jun 5.0 02:17:33 10° ENE 02:19:30 12° E 02:21:24 10° ESE visible
28 Jun 5.0 02:19:23 10° ENE 02:21:28 13° E 02:23:31 10° ESE visible
